Location: Unspecified
(0.0000°N, 0.0000°E)
Time: 12:37:07
(UTC+00:00)

Envisat - Pass Details

Date: 09 October 2022
Orbit: 763 x 765 km, 98.2° (Epoch: 08 December)

Event Time Altitude Azimuth Distance (km) Brightness Sun altitude
Rises 03:46:26 0° 15° (NNE) 3,214 6.3 -30.0°
Reaches altitude 10° 03:48:44 10° 17° (NNE) 2,291 5.5 -29.5°
Maximum altitude 03:53:46 74° 102° (ESE) 795 3.1 -28.2°
Drops below altitude 10° 03:58:49 10° 187° (S) 2,299 5.5 -27.0°
Sets 04:01:08 0° 188° (S) 3,227 6.2 -26.4°
